KC0QBU-13 Weather Reports


time (UTC)temp
C
wind
direction
speed
KPH
gust
KPH
rain 1hr
cm
rain 24hr
cm
rain mn
cm
humidity
%
barometer
mb
20260505071004 12 297 0.0 6.4 0.13 0.28 0.28 71 1010.3
20260505070753 12 346 1.6 9.7 0.13 0.25 0.28 70 1010.1
20260505070503 12 354 1.6 9.7 0.13 0.25 0.25 69 1009.9
20260505070253 12 3 1.6 9.7 0.13 0.25 0.25 68 1009.2
20260505070004 12 5 1.6 9.7 0.15 0.25 0.25 68 1009.2
20260505065723 12 13 0.0 4.8 0.18 0.25 0.25 70 1009.4
20260505065223 12 26 0.0 4.8 0.18 0.23 0.23 74 1009.2
20260505065003 13 21 0.0 6.4 0.20 0.23 0.23 76 1009.2
20260505064653 13 225 0.0 1.6 0.23 0.23 0.23 78 1009.9
20260505064123 13 239 0.0 3.2 0.23 0.23 0.23 78 1009.7
20260505064003 13 239 0.0 3.2 0.23 0.23 0.23 78 1009.5
20260505063623 13 314 0.0 3.2 0.23 0.23 0.23 79 1008.7
20260505063504 13 314 0.0 3.2 0.23 0.23 0.23 80 1008.7
20260505063053 13 342 0.0 3.2 0.18 0.18 0.18 80 1008.3
20260505063003 13 342 0.0 3.2 0.20 0.20 0.20 80 1008.3
20260505062523 14 344 0.0 3.2 0.18 0.18 0.18 83 1008.6
20260505062503 14 345 0.0 3.2 0.20 0.20 0.20 83 1008.5
20260505062023 14 0 0.0 0.0 0.18 0.18 0.15 84 1008.7
20260505062003 14 0 0.0 0.0 0.18 0.18 0.18 84 1008.7
20260505061523 14 0 0.0 0.0 0.18 0.18 0.15 83 1008.9
20260505061504 14 0 0.0 0.0 0.18 0.18 0.18 83 1008.9
20260505061023 15 0 0.0 0.0 0.13 0.13 0.13 81 1008.5
20260505060523 15 0 0.0 0.0 0.13 0.13 0.10 78 1008.0
20260505060504 15 0 0.0 0.0 0.13 0.13 0.13 78 1008.1
20260505060003 15 31 0.0 1.6 0.10 0.10 0.10 75 1007.9
20260505055953 15 31 0.0 1.6 0.08 0.08 0.08 74 1007.8
20260505055504 16 31 0.0 3.2 0.05 0.05 0.05 70 1007.5
20260505055453 16 31 0.0 3.2 0.03 0.03 0.05 69 1007.4
20260505055003 16 19 0.0 6.4 0.03 0.03 0.03 66 1007.3
20260505054953 16 19 0.0 4.8 0.00 0.00 0.03 65 1007.3
20260505054504 16 9 1.6 8.0 0.00 0.00 0.00 62 1007.2
20260505054453 17 12 1.6 8.0 0.00 0.00 0.00 61 1007.2
20260505054003 17 19 1.6 8.0 0.00 0.00 0.00 58 1007.2
20260505053923 17 21 1.6 9.7 0.00 0.00 0.00 57 1007.3
20260505053503 17 24 3.2 9.7 0.00 0.00 0.00 57 1007.3
20260505053423 17 20 3.2 9.7 0.00 0.00 0.00 56 1007.3
20260505053003 17 12 6.4 12.9 0.00 0.00 0.00 55 1007.5
20260505052923 18 11 4.8 11.3 0.00 0.00 0.00 55 1007.6
20260505052503 18 2 6.4 12.9 0.00 0.00 0.00 51 1007.4
20260505052423 18 352 4.8 11.3 0.00 0.00 0.00 49 1007.2
20260505052003 19 332 6.4 17.7 0.00 0.00 0.00 47 1006.9
20260505051853 19 318 4.8 17.7 0.00 0.00 0.00 46 1006.9
20260505051353 20 319 4.8 17.7 0.00 0.00 0.00 44 1006.9
20260505051003 21 308 6.4 14.5 0.00 0.00 0.00 42 1006.8
20260505050823 21 315 4.8 12.9 0.00 0.00 0.00 42 1006.7
20260505050503 21 315 3.2 9.7 0.00 0.00 0.00 45 1006.5
20260505050253 21 322 3.2 9.7 0.00 0.00 0.00 46 1006.2
20260505041653 21 143 1.6 9.7 0.00 0.00 0.00 66 1005.4
20260505041153 22 148 1.6 9.7 0.00 0.00 0.00 66 1005.6
20260505041003 22 146 1.6 8.0 0.00 0.00 0.00 66 1005.6
20260505040623 22 145 1.6 4.8 0.00 0.00 0.00 66 1005.7
20260505040504 22 144 1.6 6.4 0.00 0.00 0.00 66 1005.7
20260505040123 22 142 1.6 4.8 0.00 0.00 0.00 66 1005.8
20260505040004 22 144 1.6 6.4 0.00 0.00 0.00 66 1005.8
20260505035623 22 147 1.6 9.7 0.00 0.00 0.00 66 1005.8
20260505035504 22 148 1.6 9.7 0.00 0.00 0.00 66 1005.8
20260505035053 22 147 1.6 9.7 0.00 0.00 0.00 66 1005.8
20260505035004 22 147 1.6 9.7 0.00 0.00 0.00 66 1005.9
20260505034523 22 145 1.6 9.7 0.00 0.00 0.00 65 1005.9
20260505034503 22 145 1.6 9.7 0.00 0.00 0.00 65 1005.8
20260505034023 22 144 1.6 11.3 0.00 0.00 0.00 65 1005.8
20260505034004 22 144 1.6 12.9 0.00 0.00 0.00 65 1005.8
20260505033503 22 145 0.0 12.9 0.00 0.00 0.00 65 1005.9
20260505033453 22 149 0.0 4.8 0.00 0.00 0.00 65 1005.9
20260505032923 22 145 0.0 4.8 0.00 0.00 0.00 65 1005.9
20260505032504 22 144 1.6 8.0 0.00 0.00 0.00 64 1005.8
20260505032423 22 143 1.6 8.0 0.00 0.00 0.00 64 1005.8
20260505032003 22 140 1.6 8.0 0.00 0.00 0.00 63 1005.7
20260505031853 22 140 1.6 8.0 0.00 0.00 0.00 63 1005.7
20260505031503 22 141 1.6 8.0 0.00 0.00 0.00 63 1005.7
20260505031353 22 144 0.0 8.0 0.00 0.00 0.00 63 1005.7
20260505031004 22 146 0.0 8.0 0.00 0.00 0.00 63 1005.7
20260505030823 22 147 0.0 8.0 0.00 0.00 0.00 62 1005.6
20260505030503 22 146 0.0 3.2 0.00 0.00 0.00 62 1005.6
20260505030323 22 146 0.0 3.2 0.00 0.00 0.00 62 1005.6
20260505030003 22 142 0.0 1.6 0.00 0.00 0.00 61 1005.6
20260505025753 22 142 0.0 1.6 0.00 0.00 0.00 61 1005.6
20260505025504 22 0 0.0 0.0 0.00 0.00 0.00 61 1005.6
20260505025253 22 0 0.0 0.0 0.00 0.00 0.00 60 1005.6
20260505025004 22 142 0.0 1.6 0.00 0.00 0.00 60 1005.5
20260505024753 22 139 0.0 3.2 0.00 0.00 0.00 59 1005.5
20260505024503 23 139 0.0 3.2 0.00 0.00 0.00 59 1005.4
20260505024223 23 139 0.0 3.2 0.00 0.00 0.00 59 1005.4
20260505024004 23 139 0.0 3.2 0.00 0.00 0.00 59 1005.4
20260505023723 23 139 0.0 3.2 0.00 0.00 0.00 58 1005.4
20260505023153 23 0 0.0 0.0 0.00 0.00 0.00 58 1005.2
20260505023003 23 0 0.0 0.0 0.00 0.00 0.00 58 1005.2
20260505022623 23 0 0.0 0.0 0.00 0.00 0.00 57 1005.1
20260505022504 23 0 0.0 0.0 0.00 0.00 0.00 57 1005.1
20260505022123 23 0 0.0 0.0 0.00 0.00 0.00 57 1005.0
20260505022003 23 0 0.0 0.0 0.00 0.00 0.00 56 1005.0
20260505021553 23 0 0.0 0.0 0.00 0.00 0.00 56 1004.9
20260505021503 23 0 0.0 0.0 0.00 0.00 0.00 56 1004.9
20260505021053 23 0 0.0 0.0 0.00 0.00 0.00 55 1004.9
20260505021004 23 0 0.0 0.0 0.00 0.00 0.00 55 1004.9
20260505020523 23 0 0.0 0.0 0.00 0.00 0.00 55 1004.8
20260505020503 23 0 0.0 0.0 0.00 0.00 0.00 55 1004.9
20260505020004 23 0 0.0 0.0 0.00 0.00 0.00 54 1004.8
20260505015953 23 0 0.0 0.0 0.00 0.00 0.00 54 1004.8
20260505015503 23 0 0.0 0.0 0.00 0.00 0.00 54 1004.7
20260505015423 23 0 0.0 0.0 0.00 0.00 0.00 54 1004.7
20260505014853 23 0 0.0 0.0 0.00 0.00 0.00 54 1004.6
20260505014504 23 0 0.0 0.0 0.00 0.00 0.00 54 1004.6
20260505014353 22 0 0.0 0.0 0.00 0.00 0.00 54 1004.6
20260505014003 22 0 0.0 0.0 0.00 0.00 0.00 55 1004.5
20260505013823 22 0 0.0 0.0 0.00 0.00 0.00 56 1004.5
20260505013503 23 0 0.0 0.0 0.00 0.00 0.00 55 1004.5
20260505013253 23 0 0.0 0.0 0.00 0.00 0.00 56 1004.4
20260505013004 23 0 0.0 0.0 0.00 0.00 0.00 54 1004.5
20260505012753 23 0 0.0 0.0 0.00 0.00 0.00 53 1004.4
20260505012503 23 0 0.0 0.0 0.00 0.00 0.00 53 1004.4
20260505012253 23 0 0.0 0.0 0.00 0.00 0.00 53 1004.3
20260505012003 23 0 0.0 0.0 0.00 0.00 0.00 53 1004.3
20260505011753 23 0 0.0 0.0 0.00 0.00 0.00 52 1004.2
20260505011504 23 0 0.0 0.0 0.00 0.00 0.00 52 1004.2
20260505011253 23 0 0.0 0.0 0.00 0.00 0.00 52 1004.2
20260505011003 23 0 0.0 0.0 0.00 0.00 0.00 52 1004.1
20260505010753 24 0 0.0 0.0 0.00 0.00 0.00 51 1004.0
20260505010503 24 0 0.0 0.0 0.00 0.00 0.00 51 1004.0
20260505010223 24 0 0.0 0.0 0.00 0.00 0.00 51 1003.9
20260505010004 24 0 0.0 0.0 0.00 0.00 0.00 50 1003.9
20260505005653 25 0 0.0 0.0 0.00 0.00 0.00 50 1004.0
20260505005503 25 0 0.0 0.0 0.00 0.00 0.00 49 1004.0
20260505005153 25 0 0.0 0.0 0.00 0.00 0.00 48 1003.8
20260505005004 25 0 0.0 0.0 0.00 0.00 0.00 48 1003.8
20260505004623 25 0 0.0 0.0 0.00 0.00 0.00 47 1003.8
20260505004504 25 0 0.0 0.0 0.00 0.00 0.00 47 1003.8
20260505004053 25 0 0.0 0.0 0.00 0.00 0.00 47 1003.7
20260505004003 25 0 0.0 0.0 0.00 0.00 0.00 47 1003.8
20260505003523 26 0 0.0 0.0 0.00 0.00 0.00 46 1003.7
20260505003503 26 0 0.0 0.0 0.00 0.00 0.00 46 1003.7
20260505003023 26 0 0.0 0.0 0.00 0.00 0.00 47 1003.7
20260505003004 26 0 0.0 0.0 0.00 0.00 0.00 47 1003.6
20260505002523 26 0 0.0 0.0 0.00 0.00 0.00 47 1003.6
20260505002503 26 0 0.0 0.0 0.00 0.00 0.00 47 1003.6
20260505002003 26 0 0.0 0.0 0.00 0.00 0.00 46 1003.6
20260505001953 26 0 0.0 0.0 0.00 0.00 0.00 46 1003.6
20260505001504 26 0 0.0 0.0 0.00 0.00 0.00 46 1003.6
20260505001423 26 0 0.0 0.0 0.00 0.00 0.00 46 1003.7
20260505000853 26 144 0.0 1.6 0.00 0.00 0.00 45 1003.6
20260505000352 26 144 0.0 1.6 0.00 0.00 0.00 45 1003.7
20260505000004 26 197 0.0 1.6 0.00 0.00 0.00 45 1003.7
20260504235823 26 250 0.0 1.6 0.00 0.00 0.00 45 1003.7
20260504235503 26 250 0.0 1.6 0.00 0.00 0.00 45 1003.8
20260504235323 26 243 0.0 1.6 0.00 0.00 0.00 44 1003.7
20260504235003 26 243 0.0 1.6 0.00 0.00 0.00 44 1003.7
20260504234822 26 240 0.0 1.6 0.00 0.00 0.00 45 1003.7
20260504234253 26 253 0.0 3.2 0.00 0.00 0.00 44 1003.7
20260504234003 26 248 0.0 3.2 0.00 0.00 0.00 44 1003.7
20260504233722 26 240 0.0 3.2 0.00 0.00 0.00 44 1003.7
20260504233503 27 243 0.0 3.2 0.00 0.00 0.00 44 1003.7
20260504233222 27 244 0.0 3.2 0.00 0.00 0.00 44 1003.7
20260504232653 27 236 0.0 4.8 0.00 0.00 0.00 43 1003.8
20260504232503 27 228 0.0 6.4 0.00 0.00 0.00 44 1003.8
20260504232153 27 155 0.0 4.8 0.00 0.00 0.00 43 1003.7
20260504232004 27 145 0.0 6.4 0.00 0.00 0.00 43 1003.7
20260504231623 27 183 0.0 3.2 0.00 0.00 0.00 42 1003.8
20260504231052 27 219 1.6 4.8 0.00 0.00 0.00 42 1003.7
20260504231003 27 219 1.6 6.4 0.00 0.00 0.00 42 1003.7
20260504230522 27 223 1.6 4.8 0.00 0.00 0.00 42 1003.8
20260504230504 27 223 1.6 6.4 0.00 0.00 0.00 42 1003.8
20260504225952 27 244 0.0 3.2 0.00 0.00 0.00 42 1003.7
20260504225453 27 165 0.0 8.0 0.00 0.00 0.00 43 1003.7
20260504224952 27 138 0.0 8.0 0.00 0.00 0.00 45 1003.7
20260504224504 27 140 1.6 14.5 0.00 0.00 0.00 42 1003.7
20260504224422 27 144 1.6 12.9 0.00 0.00 0.00 42 1003.7
20260504224003 27 156 1.6 14.5 0.00 0.00 0.00 43 1003.7
20260504223922 27 160 1.6 12.9 0.00 0.00 0.00 42 1003.7
20260504223504 27 223 1.6 6.4 0.00 0.00 0.00 42 1003.7
20260504223352 27 242 1.6 4.8 0.00 0.00 0.00 42 1003.7
20260504223003 27 225 1.6 8.0 0.00 0.00 0.00 42 1003.8
20260504222852 27 177 1.6 9.7 0.00 0.00 0.00 43 1003.7
20260504222503 27 150 1.6 9.7 0.00 0.00 0.00 43 1003.8
20260504222352 27 148 1.6 9.7 0.00 0.00 0.00 44 1003.7
20260504222004 27 146 1.6 9.7 0.00 0.00 0.00 43 1003.7
20260504221822 27 169 0.0 8.0 0.00 0.00 0.00 43 1003.8
20260504221503 27 198 0.0 8.0 0.00 0.00 0.00 43 1003.8
20260504221322 26 176 0.0 8.0 0.00 0.00 0.00 43 1003.8
20260504220822 26 168 0.0 8.0 0.00 0.00 0.00 44 1003.9
20260504220503 26 187 0.0 8.0 0.00 0.00 0.00 44 1004.0
20260504220322 26 194 0.0 8.0 0.00 0.00 0.00 43 1003.9
20260504220003 26 214 0.0 8.0 0.00 0.00 0.00 43 1003.9
20260504215752 26 240 0.0 4.8 0.00 0.00 0.00 44 1004.0
20260504215503 26 243 0.0 6.4 0.00 0.00 0.00 44 1004.0
20260504215222 26 203 0.0 4.8 0.00 0.00 0.00 44 1004.1
20260504215003 26 206 1.6 6.4 0.00 0.00 0.00 43 1004.1
20260504214722 26 225 0.0 4.8 0.00 0.00 0.00 43 1004.2
20260504214504 26 229 1.6 6.4 0.00 0.00 0.00 43 1004.2
20260504214152 26 194 1.6 8.0 0.00 0.00 0.00 45 1004.1
20260504214003 26 191 0.0 8.0 0.00 0.00 0.00 42 1004.1
20260504213652 27 138 1.6 8.0 0.00 0.00 0.00 41 1004.2
20260504213122 27 153 1.6 8.0 0.00 0.00 0.00 41 1004.2
20260504213004 27 148 1.6 8.0 0.00 0.00 0.00 40 1004.2
20260504212552 26 155 1.6 9.7 0.00 0.00 0.00 42 1004.3
20260504212503 26 155 1.6 9.7 0.00 0.00 0.00 42 1004.2
20260504212052 26 141 1.6 9.7 0.00 0.00 0.00 43 1004.3
20260504212004 26 141 1.6 9.7 0.00 0.00 0.00 43 1004.4
20260504211552 26 205 1.6 8.0 0.00 0.00 0.00 43 1004.2
20260504211504 26 205 1.6 8.0 0.00 0.00 0.00 43 1004.3
20260504211022 26 239 1.6 8.0 0.00 0.00 0.00 41 1004.3
20260504211003 26 239 1.6 8.0 0.00 0.00 0.00 41 1004.3
20260504210522 27 150 1.6 12.9 0.00 0.00 0.00 42 1004.3
20260504210504 27 150 1.6 14.5 0.00 0.00 0.00 42 1004.3
20260504210004 27 225 1.6 14.5 0.00 0.00 0.00 41 1004.3
20260504205952 27 246 1.6 12.9 0.00 0.00 0.00 42 1004.3
20260504205504 27 247 3.2 14.5 0.00 0.00 0.00 42 1004.4
20260504205422 27 242 3.2 12.9 0.00 0.00 0.00 40 1004.4
20260504205003 27 203 3.2 14.5 0.00 0.00 0.00 40 1004.4
20260504204922 27 191 3.2 12.9 0.00 0.00 0.00 39 1004.5
20260504204503 27 163 1.6 14.5 0.00 0.00 0.00 40 1004.6
20260504204422 27 172 1.6 12.9 0.00 0.00 0.00 38 1004.6
20260504204004 27 162 1.6 8.0 0.00 0.00 0.00 40 1004.5
20260504203852 28 150 1.6 8.0 0.00 0.00 0.00 40 1004.6
20260504203503 28 156 1.6 9.7 0.00 0.00 0.00 39 1004.5
20260504203352 28 183 1.6 9.7 0.00 0.00 0.00 40 1004.6
20260504202852 28 210 1.6 11.3 0.00 0.00 0.00 39 1004.6
20260504202504 28 184 1.6 12.9 0.00 0.00 0.00 40 1004.6
20260504202322 28 153 1.6 11.3 0.00 0.00 0.00 39 1004.5
20260504202003 28 149 1.6 9.7 0.00 0.00 0.00 39 1004.5
20260504201822 28 150 1.6 9.7 0.00 0.00 0.00 38 1004.6
20260504201504 28 155 1.6 9.7 0.00 0.00 0.00 40 1004.6
20260504201322 28 150 1.6 9.7 0.00 0.00 0.00 38 1004.6
20260504200822 28 143 3.2 16.1 0.00 0.00 0.00 38 1004.7
20260504200503 28 138 3.2 16.1 0.00 0.00 0.00 38 1004.7
20260504200322 28 138 3.2 16.1 0.00 0.00 0.00 38 1004.7
20260504200004 28 147 3.2 12.9 0.00 0.00 0.00 40 1004.7
20260504195822 28 155 3.2 11.3 0.00 0.00 0.00 40 1004.8
20260504195503 28 171 1.6 12.9 0.00 0.00 0.00 39 1004.7
20260504195252 28 176 1.6 11.3 0.00 0.00 0.00 39 1004.7
20260504194752 28 146 1.6 9.7 0.00 0.00 0.00 43 1004.7
20260504194503 28 150 1.6 9.7 0.00 0.00 0.00 42 1004.7
20260504194223 28 168 3.2 9.7 0.00 0.00 0.00 43 1004.8
20260504194003 28 168 3.2 9.7 0.00 0.00 0.00 40 1004.7
20260504193722 28 200 1.6 9.7 0.00 0.00 0.00 43 1004.7
20260504193503 28 191 1.6 9.7 0.00 0.00 0.00 41 1004.8
20260504193222 28 141 1.6 11.3 0.00 0.00 0.00 41 1004.8
20260504193004 28 140 1.6 12.9 0.00 0.00 0.00 41 1004.8
20260504192652 28 146 1.6 11.3 0.00 0.00 0.00 42 1004.8
20260504192503 28 146 3.2 12.9 0.00 0.00 0.00 41 1004.8
20260504192152 28 170 1.6 9.7 0.00 0.00 0.00 40 1004.8
20260504192003 28 179 1.6 9.7 0.00 0.00 0.00 41 1004.8
20260504191622 27 171 1.6 12.9 0.00 0.00 0.00 40 1004.7
20260504191504 27 167 1.6 14.5 0.00 0.00 0.00 41 1004.7
20260504191052 27 224 3.2 12.9 0.00 0.00 0.00 39 1004.8
20260504191003 27 224 3.2 14.5 0.00 0.00 0.00 39 1004.7
20260504190552 27 255 1.6 12.9 0.00 0.00 0.00 40 1004.8
20260504190504 27 255 1.6 14.5 0.00 0.00 0.00 40 1004.8
20260504190052 27 217 1.6 9.7 0.00 0.00 0.00 41 1005.0
20260504185552 27 250 1.6 9.7 0.00 0.00 0.00 45 1004.9
20260504185504 27 250 1.6 9.7 0.00 0.00 0.00 45 1005.0
20260504185052 27 246 3.2 11.3 0.00 0.00 0.00 44 1005.0
20260504185003 27 246 3.2 12.9 0.00 0.00 0.00 44 1005.0
20260504184522 27 148 3.2 12.9 0.00 0.00 0.00 44 1004.9
20260504184503 27 148 3.2 14.5 0.00 0.00 0.00 44 1005.0
20260504184022 27 133 3.2 12.9 0.00 0.00 0.00 40 1005.0
20260504184004 27 133 3.2 14.5 0.00 0.00 0.00 40 1005.0
20260504183522 27 149 3.2 12.9 0.00 0.00 0.00 40 1005.1
20260504183503 27 148 3.2 14.5 0.00 0.00 0.00 40 1005.1
20260504183004 26 223 1.6 12.9 0.00 0.00 0.00 42 1005.1
20260504182952 26 227 3.2 11.3 0.00 0.00 0.00 41 1005.1
20260504182503 26 177 3.2 14.5 0.00 0.00 0.00 42 1005.1
20260504182452 26 162 3.2 12.9 0.00 0.00 0.00 43 1005.2
20260504182003 26 176 3.2 14.5 0.00 0.00 0.00 42 1005.2
20260504181952 26 183 3.2 12.9 0.00 0.00 0.00 42 1005.2
20260504181422 26 241 3.2 9.7 0.00 0.00 0.00 42 1005.2
20260504181003 26 163 1.6 14.5 0.00 0.00 0.00 42 1005.2
20260504180852 26 148 1.6 12.9 0.00 0.00 0.00 41 1005.3
20260504180503 26 153 1.6 14.5 0.00 0.00 0.00 47 1005.3
20260504180352 26 185 3.2 12.9 0.00 0.00 0.00 41 1005.3
20260504180004 26 238 1.6 8.0 0.00 0.00 0.00 43 1005.4
20260504175822 26 249 1.6 8.0 0.00 0.00 0.00 46 1005.4
20260504175503 26 192 3.2 14.5 0.00 0.00 0.00 43 1005.4
20260504175252 26 156 3.2 16.1 0.00 0.00 0.00 44 1005.5
20260504175003 26 146 3.2 16.1 0.00 0.00 0.00 44 1005.5
20260504174723 26 140 3.2 16.1 0.00 0.00 0.00 40 1005.4
20260504174503 26 141 3.2 16.1 0.00 0.00 0.00 41 1005.5
20260504174152 26 144 1.6 11.3 0.00 0.00 0.00 44 1005.5
20260504174004 26 142 1.6 12.9 0.00 0.00 0.00 42 1005.5
20260504173622 26 181 1.6 9.7 0.00 0.00 0.00 42 1005.6
20260504173052 25 248 1.6 11.3 0.00 0.00 0.00 44 1005.6
20260504173004 25 248 1.6 12.9 0.00 0.00 0.00 44 1005.6
20260504172552 25 250 1.6 11.3 0.00 0.00 0.00 46 1005.7
20260504172504 25 250 1.6 12.9 0.00 0.00 0.00 46 1005.6
20260504172052 25 183 3.2 11.3 0.00 0.00 0.00 45 1005.6
20260504172004 25 183 3.2 12.9 0.00 0.00 0.00 45 1005.7
20260504171552 25 135 4.8 24.1 0.00 0.00 0.00 43 1005.7
20260504171503 25 135 6.4 24.1 0.00 0.00 0.00 43 1005.7
20260504171022 25 134 4.8 24.1 0.00 0.00 0.00 42 1005.6
20260504171003 25 134 6.4 24.1 0.00 0.00 0.00 42 1005.6
20260504170522 25 166 3.2 11.3 0.00 0.00 0.00 41 1005.7
20260504160222 23 242 1.6 16.1 0.00 0.00 0.00 44 1005.7
20260504151003 21 149 1.6 14.5 0.00 0.00 0.00 48 1005.9
20260504150852 21 154 1.6 12.9 0.00 0.00 0.00 49 1005.9
20260504150504 21 178 1.6 14.5 0.00 0.00 0.00 50 1005.9
20260504150352 21 214 1.6 8.0 0.00 0.00 0.00 51 1005.8
20260504141052 20 144 1.6 8.0 0.00 0.00 0.00 52 1005.9
20260504141003 20 144 1.6 8.0 0.00 0.00 0.00 52 1006.1
20260504140522 20 140 1.6 9.7 0.00 0.00 0.00 53 1005.9
20260504140504 20 140 1.6 9.7 0.00 0.00 0.00 53 1005.9
20260504130822 18 153 1.6 12.9 0.00 0.00 0.00 53 1005.7
20260504130322 18 156 1.6 17.7 0.00 0.00 0.00 53 1005.7
20260504110503 17 156 0.0 1.6 0.00 0.00 0.00 53 1006.1
20260504110252 17 133 0.0 1.6 0.00 0.00 0.00 53 1006.2
20260504100503 18 164 0.0 6.4 0.00 0.00 0.00 49 1006.1
20260504100452 18 155 0.0 4.8 0.00 0.00 0.00 49 1006.0
20260504081952 18 153 1.6 16.1 0.00 0.00 0.00 50 1006.8
20260504081503 18 153 1.6 16.1 0.00 0.00 0.00 51 1006.9
20260504081452 18 160 0.0 8.0 0.00 0.00 0.00 51 1006.8
20260504081003 18 150 0.0 8.0 0.00 0.00 0.00 52 1007.0
20260504080952 18 152 0.0 8.0 0.00 0.00 0.00 52 1007.0
20260504080503 18 150 0.0 6.4 0.00 0.00 0.00 52 1007.0
20260504080452 18 148 0.0 4.8 0.00 0.00 0.00 53 1007.0